Regional Weather Roundup
Issued by NWS

Home | Current Version | Previous Version | Text Only | Print | Product List | Glossary On
Versions: 1 2 3 4 5 6 7 8 9 10 11 12 13 14 15 16 17 18 19 20 21 22 23 24 25 26 27 28 29 30 31 32 33 34 35 36 37 38 39 40 41 42 43 44 45 46 47 48 49 50
158
ASUS43 KOAX 270002
RWRNE

WEATHER ROUNDUP FOR NEBRASKA
NATIONAL WEATHER SERVICE OMAHA NE
700 PM CDT MON SEP 26 2016

NOTES: SATELLITE DATA IS BEING USED TO AUGMENT CLOUD COVER ABOVE
       12000 FEET.
       "FAIR" INDICATES FEW OR NO CLOUDS BELOW 12,000 FEET WITH NO
       SIGNIFICANT WEATHER AND/OR OBSTRUCTIONS TO VISIBILITY.

  * THESE STATIONS DO NOT REPORT WEATHER SUCH AS RAIN...SNOW OR FOG.

NEZ001>004-019>022-054>056-270100-
NEBRASKA PANHANDLE

CITY           SKY/WX    TMP DP  RH WIND       PRES   REMARKS
SCOTTSBLUFF    CLEAR     73  42  32 N10       30.24S
6HR MIN TEMP:  69; 6HR MAX TEMP:  77;

ALLIANCE       CLEAR     70  41  34 NW12      30.22F
6HR MIN TEMP:  70; 6HR MAX TEMP:  75;

CHADRON        CLEAR     72  41  32 NW10G17   30.20F
6HR MIN TEMP:  71; 6HR MAX TEMP:  75;

KIMBALL        CLEAR     69  42  37 N9        30.29S
SIDNEY         LGT RAIN  71  39  31 N10       30.27S
6HR MIN TEMP:  71; 6HR MAX TEMP:  74; 6HR PCP: TRACE;

$$

NEZ057>060-069>072-079>082-270100-
SOUTHWEST NEBRASKA

CITY           SKY/WX    TMP DP  RH WIND       PRES   REMARKS
NORTH PLATTE   CLEAR     72  42  34 NW8       30.16F
6HR MIN TEMP:  72; 6HR MAX TEMP:  78;

IMPERIAL       CLEAR     75  37  25 N10       30.20F
6HR MIN TEMP:  73; 6HR MAX TEMP:  79;

LEXINGTON      CLEAR     72  41  32 N5        30.15S
MCCOOK         CLEAR     74  43  32 NW6       30.16F
6HR MIN TEMP:  74; 6HR MAX TEMP:  80;

OGALLALA       CLEAR     75  39  26 N8        30.20S
$$

NEZ005>010-023>029-035>040-094-270100-
NORTH CENTRAL NEBRASKA

CITY           SKY/WX    TMP DP  RH WIND       PRES   REMARKS
VALENTINE      CLEAR     72  37  28 NW12      30.14F
6HR MIN TEMP:  71; 6HR MAX TEMP:  75;

AINSWORTH      CLEAR     69  41  35 NW7       30.15S
BROKEN BOW     CLEAR     72  39  30 N7        30.14F
6HR MIN TEMP:  72; 6HR MAX TEMP:  78;

O`NEILL        CLEAR     68  37  31 N8        30.13S
ORD            CLEAR     69  40  34 N6        30.12
6HR MIN TEMP:  69; 6HR MAX TEMP:  76;

THEDFORD       CLEAR     72  40  31 N8        30.17S
$$

NEZ041-046>049-061>064-073>077-083>087-270100-
SOUTH CENTRAL NEBRASKA

CITY           SKY/WX    TMP DP  RH WIND       PRES   REMARKS
GRAND ISLAND   CLEAR     71  43  36 N9        30.12S
6HR MIN TEMP:  71; 6HR MAX TEMP:  78;

AURORA         CLEAR     71  42  34 N6        30.11S
HASTINGS       CLEAR     74  40  29 NW8       30.12F
6HR MIN TEMP:  71; 6HR MAX TEMP:  78;

HEBRON         CLEAR     71  41  33 SW5       30.12S
HOLDREGE       CLEAR     74  38  26 CALM      30.14S
KEARNEY *      CLEAR     73  37  27 N9        30.12S
YORK           CLEAR     72  41  33 NW6       30.10F
$$

NEZ011>018-030>034-042>045-270100-
NORTHEAST NEBRASKA

CITY           SKY/WX    TMP DP  RH WIND       PRES   REMARKS
NORFOLK        CLEAR     67  40  37 NW7       30.09S
6HR MIN TEMP:  67; 6HR MAX TEMP:  76;

ALBION         CLEAR     69  39  34 NW9       30.11S
BLAIR          CLEAR     72  40  31 W3        30.06F
FREMONT        CLEAR     68  43  41 NW6       30.07S
TEKAMAH        CLEAR     67  45  45 NW8       30.05F
6HR MIN TEMP:  67; 6HR MAX TEMP:  77;

WAYNE          CLEAR     67  42  40 NW7       30.09S
$$

NEZ050>053-065>068-078-088>093-270100-
SOUTHEAST NEBRASKA

CITY           SKY/WX    TMP DP  RH WIND       PRES   REMARKS
LINCOLN        CLEAR     75  41  29 W5        30.09F
6HR MIN TEMP:  74; 6HR MAX TEMP:  78;

OMAHA EPPLEY   CLEAR     72  42  34 W5        30.05F
6HR MIN TEMP:  72; 6HR MAX TEMP:  77;

BEATRICE       CLEAR     71  43  36 SW5       30.10F
FALLS CITY     CLEAR     69  47  45 SW6       30.08F
6HR MIN TEMP:  69; 6HR MAX TEMP:  75;

NEBRASKA CITY  CLEAR     69  29  22 W3        30.09S
PLATTSMOUTH    CLEAR     70  33  25 W3        30.07F
$$

NEZ044-045-051>053-067-270100-
OMAHA AREA

CITY           SKY/WX    TMP DP  RH WIND       PRES   REMARKS
OMAHA EPPLEY   CLEAR     72  42  34 W5        30.05F
6HR MIN TEMP:  72; 6HR MAX TEMP:  77;

BLAIR          CLEAR     72  40  31 W3        30.06F
FREMONT        CLEAR     68  43  41 NW6       30.07S
MILLARD        CLEAR     72  42  33 W3        30.06S
OFFUTT AFB     CLEAR     71  42  34 SW5       30.05F
PLATTSMOUTH    CLEAR     70  33  25 W3        30.07F
WAHOO          FAIR      71  42  35 W5        30.07S
$$




USA.gov is the U.S. government's official web portal to all federal, state and local government web resources and services.